owner,sensor,date,latitude,longitude,air_pressure(mBar),qcFlag 
WAVCIS,ioos:station:WAVCIS:CSI16:1,2010-11-01T00:00:00Z,29.4012,-89.0355,1014.32,11111222 
WAVCIS,ioos:station:WAVCIS:CSI16:1,2010-11-01T01:00:00Z,29.4012,-89.0355,1014.75,11111222 
WAVCIS,ioos:station:WAVCIS:CSI16:1,2010-11-01T02:00:00Z,29.4012,-89.0355,1014.95,11111222 
WAVCIS,ioos:station:WAVCIS:CSI16:1,2010-11-01T03:00:00Z,29.4012,-89.0355,1015.39,11111222 
WAVCIS,ioos:station:WAVCIS:CSI16:1,2010-11-01T04:00:00Z,29.4012,-89.0355,1015.19,11111222 
WAVCIS,ioos:station:WAVCIS:CSI16:1,2010-11-01T05:00:00Z,29.4012,-89.0355,1015.02,11111222 
WAVCIS,ioos:station:WAVCIS:CSI16:1,2010-11-01T06:00:00Z,29.4012,-89.0355,1014.99,11111222 
WAVCIS,ioos:station:WAVCIS:CSI16:1,2010-11-01T07:00:00Z,29.4012,-89.0355,1014.96,11111222 
WAVCIS,ioos:station:WAVCIS:CSI16:1,2010-11-01T08:00:00Z,29.4012,-89.0355,1014.71,11111222 
WAVCIS,ioos:station:WAVCIS:CSI16:1,2010-11-01T09:00:00Z,29.4012,-89.0355,1014.64,11111222 
WAVCIS,ioos:station:WAVCIS:CSI16:1,2010-11-01T10:00:00Z,29.4012,-89.0355,1014.7,11111222 
WAVCIS,ioos:station:WAVCIS:CSI16:1,2010-11-01T11:00:00Z,29.4012,-89.0355,1015.22,11111222 
WAVCIS,ioos:station:WAVCIS:CSI16:1,2010-11-01T12:00:00Z,29.4012,-89.0355,1015.83,11111222 
WAVCIS,ioos:station:WAVCIS:CSI16:1,2010-11-01T13:00:00Z,29.4012,-89.0355,1016.73,11111222 
WAVCIS,ioos:station:WAVCIS:CSI16:1,2010-11-01T14:00:00Z,29.4012,-89.0355,1017.59,11111222 
WAVCIS,ioos:station:WAVCIS:CSI16:1,2010-11-01T15:00:00Z,29.4012,-89.0355,1017.98,11111222 
WAVCIS,ioos:station:WAVCIS:CSI16:1,2010-11-01T16:00:00Z,29.4012,-89.0355,1018.28,11111222 
WAVCIS,ioos:station:WAVCIS:CSI16:1,2010-11-01T17:00:00Z,29.4012,-89.0355,1017.91,11111222 
WAVCIS,ioos:station:WAVCIS:CSI16:1,2010-11-01T18:00:00Z,29.4012,-89.0355,1016.95,11111222 
WAVCIS,ioos:station:WAVCIS:CSI16:1,2010-11-01T19:00:00Z,29.4012,-89.0355,1016.08,11111222 
WAVCIS,ioos:station:WAVCIS:CSI16:1,2010-11-01T20:00:00Z,29.4012,-89.0355,1015.62,11111222 
WAVCIS,ioos:station:WAVCIS:CSI16:1,2010-11-01T21:00:00Z,29.4012,-89.0355,1015.28,11111222 
WAVCIS,ioos:station:WAVCIS:CSI16:1,2010-11-01T22:00:00Z,29.4012,-89.0355,1015.21,11111222 
WAVCIS,ioos:station:WAVCIS:CSI16:1,2010-11-01T23:00:00Z,29.4012,-89.0355,1015.42,11111222 
WAVCIS,ioos:station:WAVCIS:CSI16:1,2010-11-02T00:00:00Z,29.4012,-89.0355,1015.84,11111222 
WAVCIS,ioos:station:WAVCIS:CSI16:1,2010-11-02T01:00:00Z,29.4012,-89.0355,1016.24,11111222 
WAVCIS,ioos:station:WAVCIS:CSI16:1,2010-11-02T02:00:00Z,29.4012,-89.0355,1016.32,11111222 
WAVCIS,ioos:station:WAVCIS:CSI16:1,2010-11-02T03:00:00Z,29.4012,-89.0355,1016.41,11111222 
WAVCIS,ioos:station:WAVCIS:CSI16:1,2010-11-02T04:00:00Z,29.4012,-89.0355,1016.5,11111222 
WAVCIS,ioos:station:WAVCIS:CSI16:1,2010-11-02T05:00:00Z,29.4012,-89.0355,1015.83,11111222 
WAVCIS,ioos:station:WAVCIS:CSI16:1,2010-11-02T06:00:00Z,29.4012,-89.0355,1014.95,11111222 
WAVCIS,ioos:station:WAVCIS:CSI16:1,2010-11-02T07:00:00Z,29.4012,-89.0355,1013.75,11111222 
WAVCIS,ioos:station:WAVCIS:CSI16:1,2010-11-02T08:00:00Z,29.4012,-89.0355,1012.51,11111222 
WAVCIS,ioos:station:WAVCIS:CSI16:1,2010-11-02T09:00:00Z,29.4012,-89.0355,1012.74,11111222 
WAVCIS,ioos:station:WAVCIS:CSI16:1,2010-11-02T10:00:00Z,29.4012,-89.0355,1013.03,11111222 
WAVCIS,ioos:station:WAVCIS:CSI16:1,2010-11-02T11:00:00Z,29.4012,-89.0355,1013.07,11111222 
WAVCIS,ioos:station:WAVCIS:CSI16:1,2010-11-02T12:00:00Z,29.4012,-89.0355,1013.07,11111222 
WAVCIS,ioos:station:WAVCIS:CSI16:1,2010-11-02T13:00:00Z,29.4012,-89.0355,1012.92,11111222 
WAVCIS,ioos:station:WAVCIS:CSI16:1,2010-11-02T14:00:00Z,29.4012,-89.0355,1013.25,11111222 
WAVCIS,ioos:station:WAVCIS:CSI16:1,2010-11-02T15:00:00Z,29.4012,-89.0355,1013.74,11111222 
WAVCIS,ioos:station:WAVCIS:CSI16:1,2010-11-02T16:00:00Z,29.4012,-89.0355,1013.19,11111222 
WAVCIS,ioos:station:WAVCIS:CSI16:1,2010-11-02T17:00:00Z,29.4012,-89.0355,1012.9,11111222 
WAVCIS,ioos:station:WAVCIS:CSI16:1,2010-11-02T18:00:00Z,29.4012,-89.0355,1012.08,11111222 
WAVCIS,ioos:station:WAVCIS:CSI16:1,2010-11-02T19:00:00Z,29.4012,-89.0355,1010.63,11111222 
WAVCIS,ioos:station:WAVCIS:CSI16:1,2010-11-02T20:00:00Z,29.4012,-89.0355,1009.9,11111222 
WAVCIS,ioos:station:WAVCIS:CSI16:1,2010-11-02T21:00:00Z,29.4012,-89.0355,1009.65,11111222 
WAVCIS,ioos:station:WAVCIS:CSI16:1,2010-11-02T22:00:00Z,29.4012,-89.0355,1008.98,11111222 
WAVCIS,ioos:station:WAVCIS:CSI16:1,2010-11-02T23:00:00Z,29.4012,-89.0355,1008.21,11111222 
WAVCIS,ioos:station:WAVCIS:CSI16:1,2010-11-03T00:00:00Z,29.4012,-89.0355,1008.27,11111222 
WAVCIS,ioos:station:WAVCIS:CSI16:1,2010-11-03T01:00:00Z,29.4012,-89.0355,1008.81,11111222 
WAVCIS,ioos:station:WAVCIS:CSI16:1,2010-11-03T02:00:00Z,29.4012,-89.0355,1008.94,11111222 
WAVCIS,ioos:station:WAVCIS:CSI16:1,2010-11-03T03:00:00Z,29.4012,-89.0355,1008.81,11111222 
WAVCIS,ioos:station:WAVCIS:CSI16:1,2010-11-03T04:00:00Z,29.4012,-89.0355,1008.32,11111222 
WAVCIS,ioos:station:WAVCIS:CSI16:1,2010-11-03T05:00:00Z,29.4012,-89.0355,1008.73,11111222 
WAVCIS,ioos:station:WAVCIS:CSI16:1,2010-11-03T06:00:00Z,29.4012,-89.0355,1008.06,11111222 
WAVCIS,ioos:station:WAVCIS:CSI16:1,2010-11-03T07:00:00Z,29.4012,-89.0355,1008.2,11111222 
WAVCIS,ioos:station:WAVCIS:CSI16:1,2010-11-03T08:00:00Z,29.4012,-89.0355,1007.47,11111222 
WAVCIS,ioos:station:WAVCIS:CSI16:1,2010-11-03T09:00:00Z,29.4012,-89.0355,1007.22,11111222 
WAVCIS,ioos:station:WAVCIS:CSI16:1,2010-11-03T10:00:00Z,29.4012,-89.0355,1006.604,11111222 
WAVCIS,ioos:station:WAVCIS:CSI16:1,2010-11-03T11:00:00Z,29.4012,-89.0355,1006.286,11111222 
WAVCIS,ioos:station:WAVCIS:CSI16:1,2010-11-03T12:00:00Z,29.4012,-89.0355,1006.37,11111222 
WAVCIS,ioos:station:WAVCIS:CSI16:1,2010-11-03T13:00:00Z,29.4012,-89.0355,1006.542,11111222 
WAVCIS,ioos:station:WAVCIS:CSI16:1,2010-11-03T14:00:00Z,29.4012,-89.0355,1007.22,11111222 
WAVCIS,ioos:station:WAVCIS:CSI16:1,2010-11-03T15:00:00Z,29.4012,-89.0355,1007.0,11111222 
WAVCIS,ioos:station:WAVCIS:CSI16:1,2010-11-03T16:00:00Z,29.4012,-89.0355,1006.354,11111222 
WAVCIS,ioos:station:WAVCIS:CSI16:1,2010-11-03T17:00:00Z,29.4012,-89.0355,1006.528,11111222 
WAVCIS,ioos:station:WAVCIS:CSI16:1,2010-11-03T18:00:00Z,29.4012,-89.0355,1006.602,11111222 
WAVCIS,ioos:station:WAVCIS:CSI16:1,2010-11-03T19:00:00Z,29.4012,-89.0355,1005.419,11111222 
WAVCIS,ioos:station:WAVCIS:CSI16:1,2010-11-03T20:00:00Z,29.4012,-89.0355,1004.983,11111222 
WAVCIS,ioos:station:WAVCIS:CSI16:1,2010-11-03T21:00:00Z,29.4012,-89.0355,1005.183,11111222 
WAVCIS,ioos:station:WAVCIS:CSI16:1,2010-11-03T22:00:00Z,29.4012,-89.0355,1004.842,11111222 
WAVCIS,ioos:station:WAVCIS:CSI16:1,2010-11-03T23:00:00Z,29.4012,-89.0355,1004.236,11111222 
WAVCIS,ioos:station:WAVCIS:CSI16:1,2010-11-04T00:00:00Z,29.4012,-89.0355,1004.324,11111222 
WAVCIS,ioos:station:WAVCIS:CSI16:1,2010-11-04T01:00:00Z,29.4012,-89.0355,1004.729,11111222 
WAVCIS,ioos:station:WAVCIS:CSI16:1,2010-11-04T02:00:00Z,29.4012,-89.0355,1004.465,11111222 
WAVCIS,ioos:station:WAVCIS:CSI16:1,2010-11-04T03:00:00Z,29.4012,-89.0355,1004.562,11111222 
WAVCIS,ioos:station:WAVCIS:CSI16:1,2010-11-04T04:00:00Z,29.4012,-89.0355,1004.533,11111222 
WAVCIS,ioos:station:WAVCIS:CSI16:1,2010-11-04T05:00:00Z,29.4012,-89.0355,1004.215,11111222 
WAVCIS,ioos:station:WAVCIS:CSI16:1,2010-11-04T06:00:00Z,29.4012,-89.0355,1003.415,11111222 
WAVCIS,ioos:station:WAVCIS:CSI16:1,2010-11-04T07:00:00Z,29.4012,-89.0355,1003.228,11111222 
WAVCIS,ioos:station:WAVCIS:CSI16:1,2010-11-04T08:00:00Z,29.4012,-89.0355,1002.454,11111222 
WAVCIS,ioos:station:WAVCIS:CSI16:1,2010-11-04T09:00:00Z,29.4012,-89.0355,1001.912,11111222 
WAVCIS,ioos:station:WAVCIS:CSI16:1,2010-11-04T10:00:00Z,29.4012,-89.0355,1001.364,11111222 
WAVCIS,ioos:station:WAVCIS:CSI16:1,2010-11-04T11:00:00Z,29.4012,-89.0355,1001.904,11111222 
WAVCIS,ioos:station:WAVCIS:CSI16:1,2010-11-04T12:00:00Z,29.4012,-89.0355,1002.148,11111222 
WAVCIS,ioos:station:WAVCIS:CSI16:1,2010-11-04T13:00:00Z,29.4012,-89.0355,1003.413,11111222 
WAVCIS,ioos:station:WAVCIS:CSI16:1,2010-11-04T14:00:00Z,29.4012,-89.0355,1003.725,11111222 
WAVCIS,ioos:station:WAVCIS:CSI16:1,2010-11-04T15:00:00Z,29.4012,-89.0355,1003.836,11111222 
WAVCIS,ioos:station:WAVCIS:CSI16:1,2010-11-04T16:00:00Z,29.4012,-89.0355,1004.218,11111222 
WAVCIS,ioos:station:WAVCIS:CSI16:1,2010-11-04T17:00:00Z,29.4012,-89.0355,1004.152,11111222 
WAVCIS,ioos:station:WAVCIS:CSI16:1,2010-11-04T18:00:00Z,29.4012,-89.0355,1003.777,11111222 
WAVCIS,ioos:station:WAVCIS:CSI16:1,2010-11-04T19:00:00Z,29.4012,-89.0355,1003.227,11111222 
WAVCIS,ioos:station:WAVCIS:CSI16:1,2010-11-04T20:00:00Z,29.4012,-89.0355,1003.469,11111222 
WAVCIS,ioos:station:WAVCIS:CSI16:1,2010-11-04T21:00:00Z,29.4012,-89.0355,1003.402,11111222 
WAVCIS,ioos:station:WAVCIS:CSI16:1,2010-11-04T22:00:00Z,29.4012,-89.0355,1004.064,11111222 
WAVCIS,ioos:station:WAVCIS:CSI16:1,2010-11-04T23:00:00Z,29.4012,-89.0355,1005.023,11111222 
WAVCIS,ioos:station:WAVCIS:CSI16:1,2010-11-05T00:00:00Z,29.4012,-89.0355,1005.913,11111222 
WAVCIS,ioos:station:WAVCIS:CSI16:1,2010-11-05T01:00:00Z,29.4012,-89.0355,1006.994,11111222 
WAVCIS,ioos:station:WAVCIS:CSI16:1,2010-11-05T02:00:00Z,29.4012,-89.0355,1008.28,11111222 
WAVCIS,ioos:station:WAVCIS:CSI16:1,2010-11-05T03:00:00Z,29.4012,-89.0355,1008.87,11111222 
WAVCIS,ioos:station:WAVCIS:CSI16:1,2010-11-05T04:00:00Z,29.4012,-89.0355,1009.18,11111222 
WAVCIS,ioos:station:WAVCIS:CSI16:1,2010-11-05T05:00:00Z,29.4012,-89.0355,1009.45,11111222 
WAVCIS,ioos:station:WAVCIS:CSI16:1,2010-11-05T06:00:00Z,29.4012,-89.0355,1009.41,11111222 
WAVCIS,ioos:station:WAVCIS:CSI16:1,2010-11-05T07:00:00Z,29.4012,-89.0355,1009.41,11111222 
WAVCIS,ioos:station:WAVCIS:CSI16:1,2010-11-05T08:00:00Z,29.4012,-89.0355,1009.35,11111222 
WAVCIS,ioos:station:WAVCIS:CSI16:1,2010-11-05T09:00:00Z,29.4012,-89.0355,1009.45,11111222 
WAVCIS,ioos:station:WAVCIS:CSI16:1,2010-11-05T10:00:00Z,29.4012,-89.0355,1009.65,11111222 
WAVCIS,ioos:station:WAVCIS:CSI16:1,2010-11-05T11:00:00Z,29.4012,-89.0355,1010.01,11111222 
WAVCIS,ioos:station:WAVCIS:CSI16:1,2010-11-05T12:00:00Z,29.4012,-89.0355,1010.41,11111222 
WAVCIS,ioos:station:WAVCIS:CSI16:1,2010-11-05T13:00:00Z,29.4012,-89.0355,1011.3,11111222 
WAVCIS,ioos:station:WAVCIS:CSI16:1,2010-11-05T14:00:00Z,29.4012,-89.0355,1012.27,11111222 
WAVCIS,ioos:station:WAVCIS:CSI16:1,2010-11-05T15:00:00Z,29.4012,-89.0355,1013.29,11111222 
WAVCIS,ioos:station:WAVCIS:CSI16:1,2010-11-05T16:00:00Z,29.4012,-89.0355,1014.15,11111222 
WAVCIS,ioos:station:WAVCIS:CSI16:1,2010-11-05T17:00:00Z,29.4012,-89.0355,1014.12,11111222 
WAVCIS,ioos:station:WAVCIS:CSI16:1,2010-11-05T18:00:00Z,29.4012,-89.0355,1013.58,11111222 
WAVCIS,ioos:station:WAVCIS:CSI16:1,2010-11-05T19:00:00Z,29.4012,-89.0355,1012.73,11111222 
WAVCIS,ioos:station:WAVCIS:CSI16:1,2010-11-05T20:00:00Z,29.4012,-89.0355,1012.31,11111222 
WAVCIS,ioos:station:WAVCIS:CSI16:1,2010-11-05T21:00:00Z,29.4012,-89.0355,1012.32,11111222 
WAVCIS,ioos:station:WAVCIS:CSI16:1,2010-11-05T22:00:00Z,29.4012,-89.0355,1012.58,11111222 
WAVCIS,ioos:station:WAVCIS:CSI16:1,2010-11-05T23:00:00Z,29.4012,-89.0355,1013.23,11111222 
WAVCIS,ioos:station:WAVCIS:CSI16:1,2010-11-06T00:00:00Z,29.4012,-89.0355,1014.08,11111222 
WAVCIS,ioos:station:WAVCIS:CSI16:1,2010-11-06T01:00:00Z,29.4012,-89.0355,1014.94,11111222 
WAVCIS,ioos:station:WAVCIS:CSI16:1,2010-11-06T02:00:00Z,29.4012,-89.0355,1015.7,11111222 
WAVCIS,ioos:station:WAVCIS:CSI16:1,2010-11-06T03:00:00Z,29.4012,-89.0355,1016.58,11111222 
WAVCIS,ioos:station:WAVCIS:CSI16:1,2010-11-06T04:00:00Z,29.4012,-89.0355,1017.14,11111222 
WAVCIS,ioos:station:WAVCIS:CSI16:1,2010-11-06T05:00:00Z,29.4012,-89.0355,1017.6,11111222 
WAVCIS,ioos:station:WAVCIS:CSI16:1,2010-11-06T06:00:00Z,29.4012,-89.0355,1017.45,11111222 
WAVCIS,ioos:station:WAVCIS:CSI16:1,2010-11-06T07:00:00Z,29.4012,-89.0355,1017.61,11111222 
WAVCIS,ioos:station:WAVCIS:CSI16:1,2010-11-06T08:00:00Z,29.4012,-89.0355,1017.68,11111222 
WAVCIS,ioos:station:WAVCIS:CSI16:1,2010-11-06T09:00:00Z,29.4012,-89.0355,1017.89,11111222 
WAVCIS,ioos:station:WAVCIS:CSI16:1,2010-11-06T10:00:00Z,29.4012,-89.0355,1018.26,11111222 
WAVCIS,ioos:station:WAVCIS:CSI16:1,2010-11-06T11:00:00Z,29.4012,-89.0355,1018.85,11111222 
WAVCIS,ioos:station:WAVCIS:CSI16:1,2010-11-06T12:00:00Z,29.4012,-89.0355,1019.52,11111222 
WAVCIS,ioos:station:WAVCIS:CSI16:1,2010-11-06T13:00:00Z,29.4012,-89.0355,1020.23,11111222 
WAVCIS,ioos:station:WAVCIS:CSI16:1,2010-11-06T14:00:00Z,29.4012,-89.0355,1021.32,11111222 
WAVCIS,ioos:station:WAVCIS:CSI16:1,2010-11-06T15:00:00Z,29.4012,-89.0355,1022.44,11111222 
WAVCIS,ioos:station:WAVCIS:CSI16:1,2010-11-06T16:00:00Z,29.4012,-89.0355,1022.91,11111222 
WAVCIS,ioos:station:WAVCIS:CSI16:1,2010-11-06T17:00:00Z,29.4012,-89.0355,1022.7,11111222 
WAVCIS,ioos:station:WAVCIS:CSI16:1,2010-11-06T18:00:00Z,29.4012,-89.0355,1021.8,11111222 
WAVCIS,ioos:station:WAVCIS:CSI16:1,2010-11-06T19:00:00Z,29.4012,-89.0355,1021.02,11111222 
WAVCIS,ioos:station:WAVCIS:CSI16:1,2010-11-06T20:00:00Z,29.4012,-89.0355,1020.64,11111222 
WAVCIS,ioos:station:WAVCIS:CSI16:1,2010-11-06T21:00:00Z,29.4012,-89.0355,1020.4,11111222 
WAVCIS,ioos:station:WAVCIS:CSI16:1,2010-11-06T22:00:00Z,29.4012,-89.0355,1020.57,11111222 
WAVCIS,ioos:station:WAVCIS:CSI16:1,2010-11-06T23:00:00Z,29.4012,-89.0355,1020.99,11111222 
WAVCIS,ioos:station:WAVCIS:CSI16:1,2010-11-07T00:00:00Z,29.4012,-89.0355,1021.25,11111222 
WAVCIS,ioos:station:WAVCIS:CSI16:1,2010-11-07T01:00:00Z,29.4012,-89.0355,1021.54,11111222 
WAVCIS,ioos:station:WAVCIS:CSI16:1,2010-11-07T02:00:00Z,29.4012,-89.0355,1021.84,11111222 
WAVCIS,ioos:station:WAVCIS:CSI16:1,2010-11-07T03:00:00Z,29.4012,-89.0355,1022.63,11111222 
WAVCIS,ioos:station:WAVCIS:CSI16:1,2010-11-07T04:00:00Z,29.4012,-89.0355,1023.03,11111222 
WAVCIS,ioos:station:WAVCIS:CSI16:1,2010-11-07T05:00:00Z,29.4012,-89.0355,1022.83,11111222 
WAVCIS,ioos:station:WAVCIS:CSI16:1,2010-11-07T06:00:00Z,29.4012,-89.0355,1022.82,11111222 
WAVCIS,ioos:station:WAVCIS:CSI16:1,2010-11-07T07:00:00Z,29.4012,-89.0355,1022.72,11111222 
WAVCIS,ioos:station:WAVCIS:CSI16:1,2010-11-07T08:00:00Z,29.4012,-89.0355,1022.43,11111222 
WAVCIS,ioos:station:WAVCIS:CSI16:1,2010-11-07T09:00:00Z,29.4012,-89.0355,1022.16,11111222 
WAVCIS,ioos:station:WAVCIS:CSI16:1,2010-11-07T10:00:00Z,29.4012,-89.0355,1022.25,11111222 
WAVCIS,ioos:station:WAVCIS:CSI16:1,2010-11-07T11:00:00Z,29.4012,-89.0355,1022.51,11111222 
WAVCIS,ioos:station:WAVCIS:CSI16:1,2010-11-07T12:00:00Z,29.4012,-89.0355,1022.63,11111222 
WAVCIS,ioos:station:WAVCIS:CSI16:1,2010-11-07T13:00:00Z,29.4012,-89.0355,1022.99,11111222 
WAVCIS,ioos:station:WAVCIS:CSI16:1,2010-11-07T14:00:00Z,29.4012,-89.0355,1023.65,11111222 
WAVCIS,ioos:station:WAVCIS:CSI16:1,2010-11-07T15:00:00Z,29.4012,-89.0355,1024.24,11111222 
WAVCIS,ioos:station:WAVCIS:CSI16:1,2010-11-07T16:00:00Z,29.4012,-89.0355,1024.63,11111222 
WAVCIS,ioos:station:WAVCIS:CSI16:1,2010-11-07T17:00:00Z,29.4012,-89.0355,1024.12,11111222 
WAVCIS,ioos:station:WAVCIS:CSI16:1,2010-11-07T18:00:00Z,29.4012,-89.0355,1023.0,11111222 
WAVCIS,ioos:station:WAVCIS:CSI16:1,2010-11-07T19:00:00Z,29.4012,-89.0355,1021.89,11111222 
WAVCIS,ioos:station:WAVCIS:CSI16:1,2010-11-07T20:00:00Z,29.4012,-89.0355,1021.12,11111222 
WAVCIS,ioos:station:WAVCIS:CSI16:1,2010-11-07T21:00:00Z,29.4012,-89.0355,1020.66,11111222 
WAVCIS,ioos:station:WAVCIS:CSI16:1,2010-11-07T22:00:00Z,29.4012,-89.0355,1020.59,11111222 
WAVCIS,ioos:station:WAVCIS:CSI16:1,2010-11-07T23:00:00Z,29.4012,-89.0355,1020.57,11111222 
WAVCIS,ioos:station:WAVCIS:CSI16:1,2010-11-08T00:00:00Z,29.4012,-89.0355,1020.53,11111222 
WAVCIS,ioos:station:WAVCIS:CSI16:1,2010-11-08T01:00:00Z,29.4012,-89.0355,1020.35,11111222 
WAVCIS,ioos:station:WAVCIS:CSI16:1,2010-11-08T02:00:00Z,29.4012,-89.0355,1020.26,11111222 
WAVCIS,ioos:station:WAVCIS:CSI16:1,2010-11-08T03:00:00Z,29.4012,-89.0355,1020.11,11111222 
WAVCIS,ioos:station:WAVCIS:CSI16:1,2010-11-08T04:00:00Z,29.4012,-89.0355,1019.95,11111222 
WAVCIS,ioos:station:WAVCIS:CSI16:1,2010-11-08T05:00:00Z,29.4012,-89.0355,1019.6,11111222 
WAVCIS,ioos:station:WAVCIS:CSI16:1,2010-11-08T06:00:00Z,29.4012,-89.0355,1018.86,11111222 
WAVCIS,ioos:station:WAVCIS:CSI16:1,2010-11-08T07:00:00Z,29.4012,-89.0355,1018.23,11111222 
WAVCIS,ioos:station:WAVCIS:CSI16:1,2010-11-08T08:00:00Z,29.4012,-89.0355,1017.64,11111222 
WAVCIS,ioos:station:WAVCIS:CSI16:1,2010-11-08T09:00:00Z,29.4012,-89.0355,1017.32,11111222 
WAVCIS,ioos:station:WAVCIS:CSI16:1,2010-11-08T10:00:00Z,29.4012,-89.0355,1017.32,11111222 
WAVCIS,ioos:station:WAVCIS:CSI16:1,2010-11-08T11:00:00Z,29.4012,-89.0355,1017.24,11111222 
WAVCIS,ioos:station:WAVCIS:CSI16:1,2010-11-08T12:00:00Z,29.4012,-89.0355,1017.31,11111222 
WAVCIS,ioos:station:WAVCIS:CSI16:1,2010-11-08T13:00:00Z,29.4012,-89.0355,1017.54,11111222 
WAVCIS,ioos:station:WAVCIS:CSI16:1,2010-11-08T14:00:00Z,29.4012,-89.0355,1018.28,11111222 
WAVCIS,ioos:station:WAVCIS:CSI16:1,2010-11-08T15:00:00Z,29.4012,-89.0355,1019.05,11111222 
WAVCIS,ioos:station:WAVCIS:CSI16:1,2010-11-08T16:00:00Z,29.4012,-89.0355,1019.56,11111222 
WAVCIS,ioos:station:WAVCIS:CSI16:1,2010-11-08T17:00:00Z,29.4012,-89.0355,1019.17,11111222 
WAVCIS,ioos:station:WAVCIS:CSI16:1,2010-11-08T18:00:00Z,29.4012,-89.0355,1018.17,11111222 
WAVCIS,ioos:station:WAVCIS:CSI16:1,2010-11-08T19:00:00Z,29.4012,-89.0355,1016.9,11111222 
WAVCIS,ioos:station:WAVCIS:CSI16:1,2010-11-08T20:00:00Z,29.4012,-89.0355,1016.06,11111222 
WAVCIS,ioos:station:WAVCIS:CSI16:1,2010-11-08T21:00:00Z,29.4012,-89.0355,1015.6,11111222 
WAVCIS,ioos:station:WAVCIS:CSI16:1,2010-11-08T22:00:00Z,29.4012,-89.0355,1015.47,11111222 
WAVCIS,ioos:station:WAVCIS:CSI16:1,2010-11-08T23:00:00Z,29.4012,-89.0355,1015.62,11111222 
WAVCIS,ioos:station:WAVCIS:CSI16:1,2010-11-09T00:00:00Z,29.4012,-89.0355,1015.23,11111222 
WAVCIS,ioos:station:WAVCIS:CSI16:1,2010-11-09T01:00:00Z,29.4012,-89.0355,1015.11,11111222 
WAVCIS,ioos:station:WAVCIS:CSI16:1,2010-11-09T02:00:00Z,29.4012,-89.0355,1014.71,11111222 
WAVCIS,ioos:station:WAVCIS:CSI16:1,2010-11-09T03:00:00Z,29.4012,-89.0355,1014.83,11111222 
WAVCIS,ioos:station:WAVCIS:CSI16:1,2010-11-09T04:00:00Z,29.4012,-89.0355,1014.68,11111222 
WAVCIS,ioos:station:WAVCIS:CSI16:1,2010-11-09T05:00:00Z,29.4012,-89.0355,1014.27,11111222 
WAVCIS,ioos:station:WAVCIS:CSI16:1,2010-11-09T06:00:00Z,29.4012,-89.0355,1013.98,11111222 
WAVCIS,ioos:station:WAVCIS:CSI16:1,2010-11-09T07:00:00Z,29.4012,-89.0355,1013.81,11111222 
WAVCIS,ioos:station:WAVCIS:CSI16:1,2010-11-09T08:00:00Z,29.4012,-89.0355,1013.54,11111222 
WAVCIS,ioos:station:WAVCIS:CSI16:1,2010-11-09T09:00:00Z,29.4012,-89.0355,1013.17,11111222 
WAVCIS,ioos:station:WAVCIS:CSI16:1,2010-11-09T10:00:00Z,29.4012,-89.0355,1012.77,11111222 
WAVCIS,ioos:station:WAVCIS:CSI16:1,2010-11-09T11:00:00Z,29.4012,-89.0355,1013.07,11111222 
WAVCIS,ioos:station:WAVCIS:CSI16:1,2010-11-09T12:00:00Z,29.4012,-89.0355,1013.48,11111222 
WAVCIS,ioos:station:WAVCIS:CSI16:1,2010-11-09T13:00:00Z,29.4012,-89.0355,1013.84,11111222 
WAVCIS,ioos:station:WAVCIS:CSI16:1,2010-11-09T14:00:00Z,29.4012,-89.0355,1014.78,11111222 
WAVCIS,ioos:station:WAVCIS:CSI16:1,2010-11-09T15:00:00Z,29.4012,-89.0355,1016.27,11111222 
WAVCIS,ioos:station:WAVCIS:CSI16:1,2010-11-09T16:00:00Z,29.4012,-89.0355,1017.15,11111222 
WAVCIS,ioos:station:WAVCIS:CSI16:1,2010-11-09T17:00:00Z,29.4012,-89.0355,1017.15,11111222 
WAVCIS,ioos:station:WAVCIS:CSI16:1,2010-11-09T18:00:00Z,29.4012,-89.0355,1015.96,11111222 
WAVCIS,ioos:station:WAVCIS:CSI16:1,2010-11-09T19:00:00Z,29.4012,-89.0355,1014.67,11111222 
WAVCIS,ioos:station:WAVCIS:CSI16:1,2010-11-09T20:00:00Z,29.4012,-89.0355,1013.69,11111222 
WAVCIS,ioos:station:WAVCIS:CSI16:1,2010-11-09T21:00:00Z,29.4012,-89.0355,1013.09,11111222 
WAVCIS,ioos:station:WAVCIS:CSI16:1,2010-11-09T22:00:00Z,29.4012,-89.0355,1012.82,11111222 
WAVCIS,ioos:station:WAVCIS:CSI16:1,2010-11-09T23:00:00Z,29.4012,-89.0355,1012.8,11111222 
WAVCIS,ioos:station:WAVCIS:CSI16:1,2010-11-10T00:00:00Z,29.4012,-89.0355,1012.69,11111222 
WAVCIS,ioos:station:WAVCIS:CSI16:1,2010-11-10T01:00:00Z,29.4012,-89.0355,1012.64,11111222 
WAVCIS,ioos:station:WAVCIS:CSI16:1,2010-11-10T02:00:00Z,29.4012,-89.0355,1012.89,11111222 
WAVCIS,ioos:station:WAVCIS:CSI16:1,2010-11-10T03:00:00Z,29.4012,-89.0355,1013.27,11111222 
WAVCIS,ioos:station:WAVCIS:CSI16:1,2010-11-10T04:00:00Z,29.4012,-89.0355,1013.33,11111222 
WAVCIS,ioos:station:WAVCIS:CSI16:1,2010-11-10T05:00:00Z,29.4012,-89.0355,1012.96,11111222 
WAVCIS,ioos:station:WAVCIS:CSI16:1,2010-11-10T06:00:00Z,29.4012,-89.0355,1013.06,11111222 
WAVCIS,ioos:station:WAVCIS:CSI16:1,2010-11-10T07:00:00Z,29.4012,-89.0355,1012.97,11111222 
WAVCIS,ioos:station:WAVCIS:CSI16:1,2010-11-10T08:00:00Z,29.4012,-89.0355,1012.47,11111222 
WAVCIS,ioos:station:WAVCIS:CSI16:1,2010-11-10T09:00:00Z,29.4012,-89.0355,1012.25,11111222 
WAVCIS,ioos:station:WAVCIS:CSI16:1,2010-11-10T10:00:00Z,29.4012,-89.0355,1012.73,11111222 
WAVCIS,ioos:station:WAVCIS:CSI16:1,2010-11-10T11:00:00Z,29.4012,-89.0355,1013.22,11111222 
WAVCIS,ioos:station:WAVCIS:CSI16:1,2010-11-10T12:00:00Z,29.4012,-89.0355,1013.55,11111222 
WAVCIS,ioos:station:WAVCIS:CSI16:1,2010-11-10T13:00:00Z,29.4012,-89.0355,1014.64,11111222 
WAVCIS,ioos:station:WAVCIS:CSI16:1,2010-11-10T14:00:00Z,29.4012,-89.0355,1015.29,11111222 
WAVCIS,ioos:station:WAVCIS:CSI16:1,2010-11-10T15:00:00Z,29.4012,-89.0355,1016.14,11111222 
WAVCIS,ioos:station:WAVCIS:CSI16:1,2010-11-10T16:00:00Z,29.4012,-89.0355,1016.42,11111222 
WAVCIS,ioos:station:WAVCIS:CSI16:1,2010-11-10T17:00:00Z,29.4012,-89.0355,1016.03,11111222 
WAVCIS,ioos:station:WAVCIS:CSI16:1,2010-11-10T18:00:00Z,29.4012,-89.0355,1015.53,11111222 
WAVCIS,ioos:station:WAVCIS:CSI16:1,2010-11-10T19:00:00Z,29.4012,-89.0355,1015.17,11111222 
WAVCIS,ioos:station:WAVCIS:CSI16:1,2010-11-10T20:00:00Z,29.4012,-89.0355,1014.58,11111222 
WAVCIS,ioos:station:WAVCIS:CSI16:1,2010-11-10T21:00:00Z,29.4012,-89.0355,1014.41,11111222 
WAVCIS,ioos:station:WAVCIS:CSI16:1,2010-11-10T22:00:00Z,29.4012,-89.0355,1014.54,11111222 
WAVCIS,ioos:station:WAVCIS:CSI16:1,2010-11-10T23:00:00Z,29.4012,-89.0355,1014.67,11111222 
WAVCIS,ioos:station:WAVCIS:CSI16:1,2010-11-11T00:00:00Z,29.4012,-89.0355,1015.2,11111222 
WAVCIS,ioos:station:WAVCIS:CSI16:1,2010-11-11T01:00:00Z,29.4012,-89.0355,1015.84,11111222 
WAVCIS,ioos:station:WAVCIS:CSI16:1,2010-11-11T02:00:00Z,29.4012,-89.0355,1016.33,11111222 
WAVCIS,ioos:station:WAVCIS:CSI16:1,2010-11-11T03:00:00Z,29.4012,-89.0355,1016.73,11111222 
WAVCIS,ioos:station:WAVCIS:CSI16:1,2010-11-11T04:00:00Z,29.4012,-89.0355,1017.04,11111222 
WAVCIS,ioos:station:WAVCIS:CSI16:1,2010-11-11T05:00:00Z,29.4012,-89.0355,1017.2,11111222 
WAVCIS,ioos:station:WAVCIS:CSI16:1,2010-11-11T06:00:00Z,29.4012,-89.0355,1016.92,11111222 
WAVCIS,ioos:station:WAVCIS:CSI16:1,2010-11-11T07:00:00Z,29.4012,-89.0355,1016.82,11111222 
WAVCIS,ioos:station:WAVCIS:CSI16:1,2010-11-11T08:00:00Z,29.4012,-89.0355,1016.8,11111222 
WAVCIS,ioos:station:WAVCIS:CSI16:1,2010-11-11T09:00:00Z,29.4012,-89.0355,1016.92,11111222 
WAVCIS,ioos:station:WAVCIS:CSI16:1,2010-11-11T10:00:00Z,29.4012,-89.0355,1017.25,11111222 
WAVCIS,ioos:station:WAVCIS:CSI16:1,2010-11-11T11:00:00Z,29.4012,-89.0355,1017.37,11111222 
WAVCIS,ioos:station:WAVCIS:CSI16:1,2010-11-11T12:00:00Z,29.4012,-89.0355,1017.93,11111222 
WAVCIS,ioos:station:WAVCIS:CSI16:1,2010-11-11T13:00:00Z,29.4012,-89.0355,1018.63,11111222 
WAVCIS,ioos:station:WAVCIS:CSI16:1,2010-11-11T14:00:00Z,29.4012,-89.0355,1019.18,11111222 
WAVCIS,ioos:station:WAVCIS:CSI16:1,2010-11-11T15:00:00Z,29.4012,-89.0355,1020.37,11111222 
WAVCIS,ioos:station:WAVCIS:CSI16:1,2010-11-11T16:00:00Z,29.4012,-89.0355,1021.45,11111222 
WAVCIS,ioos:station:WAVCIS:CSI16:1,2010-11-11T17:00:00Z,29.4012,-89.0355,1021.05,11111222 
WAVCIS,ioos:station:WAVCIS:CSI16:1,2010-11-11T18:00:00Z,29.4012,-89.0355,1020.58,11111222 
WAVCIS,ioos:station:WAVCIS:CSI16:1,2010-11-11T19:00:00Z,29.4012,-89.0355,1020.27,11111222 
WAVCIS,ioos:station:WAVCIS:CSI16:1,2010-11-11T20:00:00Z,29.4012,-89.0355,1019.86,11111222 
WAVCIS,ioos:station:WAVCIS:CSI16:1,2010-11-11T21:00:00Z,29.4012,-89.0355,1019.15,11111222 